Regional Weather Roundup
Issued by NWS Cleveland, OH

Home | Current Version | Previous Version | Text Only | Print | Product List | Glossary Off
Versions: 1 2 3 4 5 6 7 8 9 10 11 12 13 14 15 16 17 18 19 20 21 22 23 24 25 26 27 28 29 30 31 32 33 34 35 36 37 38 39 40 41 42 43 44 45 46 47 48 49 50

000
ASUS41 KCLE 240410
RWRCLE
OHIO REGIONAL WEATHER ROUNDUP
NATIONAL WEATHER SERVICE CLEVELAND, OH
1200 AM EDT SUN SEP 24 2017

NOTE: "FAIR" INDICATES FEW OR NO CLOUDS BELOW 12,000 FEET WITH NO
SIGNIFICANT WEATHER AND/OR OBSTRUCTIONS TO VISIBILITY.

OHZ001>008-015>018-024>027-034-035-043-044-240500-
   NORTHWEST OHIO

CITY           SKY/WX    TMP DP  RH WIND       PRES   REMARKS
DEFIANCE       CLEAR     67  61  81 CALM      30.11S
FINDLAY        CLEAR     71  58  63 E6        30.11S
TOLEDO EXPRESS CLEAR     67  65  93 CALM      30.12R
TOLEDO EXEC    CLEAR     68  61  78 E3        30.12S
LIMA           CLEAR     66  60  81 SE6       30.12R
$$

OHZ009>014-019>023-028>033-038-089-240500-
   NORTHEAST OHIO

CITY           SKY/WX    TMP DP  RH WIND       PRES   REMARKS
CLE-HOPKINS    CLEAR     69  59  70 SE5       30.14F
CLE-LAKEFRONT  CLEAR     74  61  63 CALM      30.11S
CUY CO. ARPT   NOT AVBL
LORAIN-ELYRIA  CLEAR     63  54  72 CALM      30.13F
ASHTABULA      CLEAR     63  62  97 CALM      30.15F
AKRON-CANTON   CLEAR     69  58  67 NE5       30.15S
WOOSTER        CLEAR     60  59  96 CALM      30.15S
MANSFIELD      CLEAR     71  59  65 CALM      30.15S
YOUNGSTOWN     PTCLDY    66  62  87 E5        30.15S
$$

OHZ042-051>053-060>062-070>072-077>081-240500-
  SOUTHWEST OHIO

CITY           SKY/WX    TMP DP  RH WIND       PRES   REMARKS
CINC-COVINGTON CLEAR     75  65  70 E6        30.08S
CINC-LUNKEN    CLEAR     67  67 100 CALM      30.08S
HAMILTON       CLEAR     65  64  97 CALM      30.09S
DAYTON         CLEAR     69  59  70 NE5       30.12R
WRIGHT-PAT AFB CLEAR     69  64  86 CALM      30.10S
DAYTON GENERAL CLEAR     71  59  65 E6        30.09S
WILMINGTON     CLEAR     68  60  75 E5        30.10S
$$

OHZ036-037-039>041-045>050-054>059-063>069-073>076-082>088-240500-
  CENTRAL AND SOUTHEAST OHIO

CITY           SKY/WX    TMP DP  RH WIND       PRES   REMARKS
COLUMBUS       CLEAR     71  60  68 N5        30.10R
OSU AIRPORT    CLEAR     71  61  70 E3        30.11R
BOLTON FIELD   CLEAR     67  61  81 CALM      30.11S
RICKENBACK AFB CLEAR     66  61  85 E3        30.09S
NEWARK         CLEAR     62  60  93 CALM      30.11S
MARION         CLEAR     66  59  78 NE3       30.13S
LANCASTER      CLEAR     60  59  96 CALM      30.11S
ZANESVILLE     CLEAR     65  60  84 CALM      30.11F
NEW PHILLY     NOT AVBL
$$




USA.gov is the U.S. government's official web portal to all federal, state and local government web resources and services.